Regional Weather Roundup
Issued by NWS

Home | Current Version | Previous Version | Text Only | Print | Product List | Glossary On
Versions: 1 2 3 4 5 6 7 8 9 10 11 12 13 14 15 16 17 18 19 20 21 22 23 24 25 26 27 28 29 30 31 32 33 34 35 36 37 38 39 40 41 42 43 44 45 46 47 48 49 50
696
ASUS43 KOAX 291010
RWRNE

WEATHER ROUNDUP FOR NEBRASKA
NATIONAL WEATHER SERVICE OMAHA NE
500 AM CDT SAT APR 29 2017

NOTES: SATELLITE DATA IS BEING USED TO AUGMENT CLOUD COVER ABOVE
       12000 FEET.
       "FAIR" INDICATES FEW OR NO CLOUDS BELOW 12,000 FEET WITH NO
       SIGNIFICANT WEATHER AND/OR OBSTRUCTIONS TO VISIBILITY.

  * THESE STATIONS DO NOT REPORT WEATHER SUCH AS RAIN...SNOW OR FOG.

NEZ001>004-019>022-054>056-291100-
NEBRASKA PANHANDLE

CITY           SKY/WX    TMP DP  RH WIND       PRES   REMARKS
SCOTTSBLUFF    CLOUDY    33  27  78 N8        30.15R WCI  26
ALLIANCE       CLOUDY    32  28  85 N8        30.13R WCI  25
CHADRON        CLOUDY    32  28  85 CALM      30.18F
KIMBALL        CLOUDY    32  31  96 N6        30.11R WCI  26
SIDNEY         CLOUDY    33  30  88 N10       30.11R WCI  25
$$

NEZ057>060-069>072-079>082-291100-
SOUTHWEST NEBRASKA

CITY           SKY/WX    TMP DP  RH WIND       PRES   REMARKS
NORTH PLATTE   CLOUDY    39  31  72 N14       30.05F WCI  31
IMPERIAL       CLOUDY    37  29  72 N16       30.05R WCI  28
LEXINGTON      CLOUDY    39  32  75 NE18      30.02F WCI  30
MCCOOK         CLOUDY    39  33  79 N16       30.04R WCI  30
OGALLALA       CLOUDY    39  31  73 NE13      30.08S WCI  31
$$

NEZ005>010-023>029-035>040-094-291100-
NORTH CENTRAL NEBRASKA

CITY           SKY/WX    TMP DP  RH WIND       PRES   REMARKS
VALENTINE      CLOUDY    40  21  46 NE7       30.14F
AINSWORTH      CLOUDY    34  27  76 NE6       30.12F WCI  29
BROKEN BOW     CLOUDY    39  30  70 NE16G22   30.03F WCI  30
O`NEILL        CLOUDY    37  25  61 N10       30.11F WCI  30
ORD            CLOUDY    40  29  64 N13       30.07S WCI  32
THEDFORD       CLOUDY    38  29  68 NE8       30.10F WCI  32
$$

NEZ041-046>049-061>064-073>077-083>087-291100-
SOUTH CENTRAL NEBRASKA

CITY           SKY/WX    TMP DP  RH WIND       PRES   REMARKS
GRAND ISLAND   CLOUDY    40  36  86 N15       30.06R WCI  32
AURORA         CLOUDY    40  37  86 N14       30.06R WCI  33
HASTINGS       CLOUDY    40  35  83 NE16      30.05R WCI  31
HEBRON         CLOUDY    42  37  82 NE10G22   30.04R
HOLDREGE       CLOUDY    38  34  85 NE21G26   29.98F WCI  28
KEARNEY *      CLOUDY    39  34  81 NE17      30.03F WCI  30
YORK           CLOUDY    41  37  87 NE18      30.04R
$$

NEZ011>018-030>034-042>045-291100-
NORTHEAST NEBRASKA

CITY           SKY/WX    TMP DP  RH WIND       PRES   REMARKS
NORFOLK        CLOUDY    39  30  70 N10       30.08R WCI  32
ALBION         CLOUDY    42  31  66 N9        30.09R
BLAIR          CLOUDY    42  35  76 NE14      30.07R
FREMONT        CLOUDY    42  35  76 NE8       30.08R
TEKAMAH        CLOUDY    41  36  82 N12       30.09R
WAYNE          CLOUDY    38  32  79 N9        30.09F WCI  32
$$

NEZ050>053-065>068-078-088>093-291100-
SOUTHEAST NEBRASKA

CITY           SKY/WX    TMP DP  RH WIND       PRES   REMARKS
LINCOLN        CLOUDY    43  36  76 NE14      30.05R
OMAHA EPPLEY   CLOUDY    44  34  67 NE9       30.08R
BEATRICE       CLOUDY    43  38  82 NE14G21   30.02R
FALLS CITY     CLOUDY    43  39  86 NE12      29.97R
NEBRASKA CITY  CLOUDY    43  36  77 NE15G23   29.99F
PLATTSMOUTH    CLOUDY    42  34  73 N14G20    30.00F
$$

NEZ044-045-051>053-067-291100-
OMAHA AREA

CITY           SKY/WX    TMP DP  RH WIND       PRES   REMARKS
OMAHA EPPLEY   CLOUDY    44  34  67 NE9       30.08R
BLAIR          CLOUDY    42  35  76 NE14      30.07R
FREMONT        CLOUDY    42  35  76 NE8       30.08R
MILLARD        CLOUDY    46  36  68 NE12G18   30.04F
OFFUTT AFB     CLOUDY    43  35  73 NE13G18   30.02R
PLATTSMOUTH    CLOUDY    42  34  73 N14G20    30.00F
WAHOO          CLOUDY    42  36  79 NE12      30.07R
$$




USA.gov is the U.S. government's official web portal to all federal, state and local government web resources and services.